"2010-01-29 00:00:00",1633239,3.899,343,4.685,1.087,-1.205,98.20776,-5.265,-3.871,91.6,0,109.3,13.73,-4.53,305.0
"2010-01-29 00:00:30",1633240,4.162,353,5.067,0.929,-1.111,98.19926,-5.287,-3.81,91.7,0,109.3,13.73,-4.55,315.0
"2010-01-29 00:01:00",1633241,3.622,357,5.513,1.126,-1.44,98.19727,-5.292,-3.881,91.7,0,109.3,13.73,-4.56,319.0
"2010-01-29 00:01:30",1633242,3.753,353.7,6.055,1.121,-1.568,98.19727,-5.292,-3.915,91.7,0,109.3,13.73,-4.56,315.7
"2010-01-29 00:02:00",1633243,3.346,351.3,6.472,1.174,-2.242,98.19727,-5.292,-3.94,91.7,0,109.3,13.73,-4.56,313.3
"2010-01-29 00:02:30",1633244,4.288,357.6,5.687,1.004,-1.315,98.19727,-5.292,-3.997,91.7,0,109.3,13.73,-4.56,319.6
"2010-01-29 00:03:00",1633245,4.492,358.7,5.173,1.084,-1.763,98.19727,-5.292,-3.879,91.9,0,109.3,13.73,-4.56,320.7
"2010-01-29 00:03:30",1633246,3.99,357.1,5.906,1.163,-2,98.19643,-5.294,-3.939,91.8,0,109.3,13.73,-4.56,319.1
"2010-01-29 00:04:00",1633247,4.371,0.118,5.755,0.979,-1.258,98.18678,-5.319,-3.938,91.9,0,109.3,13.73,-4.59,322.1
"2010-01-29 00:04:30",1633248,3.932,358.5,5.857,1.086,-0.933,98.17999,-5.336,-3.966,91.9,0,109.2,13.73,-4.60,320.5
"2010-01-29 00:05:00",1633249,2.893,352.1,4.906,1.245,-2.665,98.17601,-5.346,-4.026,91.9,0,109.3,13.73,-4.61,314.1
"2010-01-29 00:05:30",1633250,3.841,347.2,6.353,1.07,-1.457,98.17034,-5.361,-3.989,92,0,109.3,13.73,-4.63,309.2
"2010-01-29 00:06:00",1633251,4.011,350.4,6.101,1.072,-1.637,98.1675,-5.368,-3.964,92,0,109.3,13.73,-4.63,312.4
"2010-01-29 00:06:30",1633252,3.72,348,5.863,1.131,-1.896,98.1655,-5.373,-3.984,92,0,109.3,13.74,-4.64,310.0
"2010-01-29 00:07:00",1633253,3.756,353.7,6.411,1.157,-1.248,98.16716,-5.369,-3.973,92.1,0,109.3,13.74,-4.64,315.7
"2010-01-29 00:07:30",1633254,3.43,357.3,6.992,1.155,-1.597,98.16716,-5.369,-4.016,92.1,0,109.3,13.74,-4.64,319.3
"2010-01-29 00:08:00",1633255,2.897,352.4,4.55,0.943,-2.931,98.16772,-5.367,-4.016,92.1,0,109.3,13.73,-4.63,314.4
"2010-01-29 00:08:30",1633256,3.995,354.5,5.863,1.107,-1.291,98.17105,-5.359,-4.019,92.2,0,109.3,13.73,-4.63,316.5
"2010-01-29 00:09:00",1633257,4.205,354.6,5.524,1.119,-1.141,98.17133,-5.358,-3.979,92.3,0,109.3,13.73,-4.63,316.6
"2010-01-29 00:09:30",1633258,4.277,358.2,6.009,0.982,-0.533,98.17329,-5.353,-3.995,92.3,0,109.3,13.73,-4.62,320.2
"2010-01-29 00:10:00",1633259,3.447,354.4,5.812,1.321,-1.791,98.17467,-5.35,-4.05,92.2,0,109.3,13.73,-4.62,316.4
"2010-01-29 00:10:30",1633260,4.01,357.8,6.571,1.177,-0.778,98.17746,-5.343,-3.967,92.3,0,109.3,13.73,-4.61,319.8
"2010-01-29 00:11:00",1633261,4.025,355.2,6.324,1.156,-1.643,98.1769,-5.344,-4.088,92.3,0,109.3,13.73,-4.61,317.2
"2010-01-29 00:11:30",1633262,4.243,0.603,5.256,0.858,-0.798,98.17773,-5.342,-4.02,92.3,0,109.3,13.73,-4.61,322.6
"2010-01-29 00:12:00",1633263,3.894,355.5,5.945,1.129,-1.756,98.17885,-5.339,-4.023,92.4,0,109.3,13.73,-4.61,317.5
"2010-01-29 00:12:30",1633264,3.981,351.6,5.392,1.038,-1.315,98.18135,-5.333,-4.008,92.4,0,109.3,13.73,-4.60,313.6
"2010-01-29 00:13:00",1633265,3.501,342.6,7.215,1.202,-2.245,98.18051,-5.335,-4.084,92.4,0,109.3,13.74,-4.60,304.6
"2010-01-29 00:13:30",1633266,3.912,349,6.361,1.128,-1.178,98.17962,-5.337,-3.997,92.5,0,109.3,13.74,-4.60,311.0
"2010-01-29 00:14:00",1633267,3.211,349.7,6.241,1.09,-2.561,98.17594,-5.346,-4.095,92.4,0,109.3,13.74,-4.61,311.7
"2010-01-29 00:14:30",1633268,4.146,354.8,5.829,0.968,-1.123,98.1731,-5.354,-4.015,92.5,0,109.2,13.74,-4.62,316.8
"2010-01-29 00:15:00",1633269,4.189,356.6,5.298,1.032,-1.081,98.17105,-5.359,-4.035,92.5,0,109.3,13.74,-4.63,318.6
"2010-01-29 00:15:30",1633270,4.168,351.2,6.121,1.118,-1.249,98.16651,-5.37,-3.991,92.6,0,109.3,13.74,-4.64,313.2
"2010-01-29 00:16:00",1633271,4.185,352.9,5.604,1.085,-0.815,98.16203,-5.382,-3.99,92.6,0,109.3,13.74,-4.65,314.9
"2010-01-29 00:16:30",1633272,4.06,350.2,5.41,1.169,-1.38,98.16279,-5.38,-4.076,92.5,0,109.3,13.74,-4.65,312.2
"2010-01-29 00:17:00",1633273,3.01,346.5,6.542,1.002,-2.147,98.15994,-5.387,-4.093,92.5,0,109.3,13.74,-4.65,308.5
"2010-01-29 00:17:30",1633274,3.299,343.5,6.485,1.156,-1.648,98.16051,-5.386,-4.078,92.6,0,109.3,13.74,-4.65,305.5
"2010-01-29 00:18:00",1633275,2.883,346.9,9.19,1.289,-2.219,98.15881,-5.39,-4.086,92.6,0,109.3,13.74,-4.66,308.9
"2010-01-29 00:18:30",1633276,2.155,345.5,7.108,1.143,-3.263,98.15569,-5.398,-4.259,92.4,0,109.3,13.74,-4.67,307.5
"2010-01-29 00:19:00",1633277,2.76,342.3,7.166,1.187,-1.832,98.15766,-5.393,-4.044,92.6,0,109.3,13.74,-4.66,304.3
"2010-01-29 00:19:30",1633278,2.163,347.8,7.004,1.249,-2.145,98.15569,-5.398,-4.128,92.5,0,109.3,13.74,-4.67,309.8
"2010-01-29 00:20:00",1633279,1.091,344.7,6.692,0.234,-4.315,98.15514,-5.399,-4.177,92.5,0,109.3,13.78,-4.67,306.7
"2010-01-29 00:20:30",1633280,3.56,346,6.903,1.125,-1.706,98.15513,-5.399,-4.047,92.7,0,109.3,13.74,-4.67,308.0
"2010-01-29 00:21:00",1633281,3.902,348.2,5.778,1.053,-1.565,98.15597,-5.397,-4.009,92.7,0,109.3,13.75,-4.66,310.2
"2010-01-29 00:21:30",1633282,3.873,354.5,7.237,1.166,-0.813,98.15569,-5.398,-4.041,92.7,0,109.3,13.75,-4.67,316.5
"2010-01-29 00:22:00",1633283,3.622,354.4,6.675,1.115,-0.583,98.15568,-5.398,-4.056,92.7,0,109.3,13.75,-4.67,316.4
"2010-01-29 00:22:30",1633284,3.193,354.2,6.528,1.103,-1.775,98.15484,-5.4,-4.055,92.7,0,109.3,13.75,-4.67,316.2
"2010-01-29 00:23:00",1633285,2.378,346.1,5.113,0.943,-3.825,98.15679,-5.395,-4.153,92.7,0,109.3,13.75,-4.66,308.1
"2010-01-29 00:23:30",1633286,4.331,344.2,6.164,0.999,-1.287,98.15596,-5.397,-4.017,92.8,0,109.3,13.75,-4.66,306.2
"2010-01-29 00:24:00",1633287,4.079,348.9,5.434,0.991,-0.687,98.15679,-5.395,-4.027,92.8,0,109.3,13.75,-4.66,310.9
"2010-01-29 00:24:30",1633288,4.359,349.3,7.118,0.899,-0.595,98.15623,-5.397,-4.04,92.8,0,109.3,13.74,-4.66,311.3
"2010-01-29 00:25:00",1633289,4.322,352.4,8.07,1.038,-0.134,98.15623,-5.397,-4.051,92.8,0,109.3,13.74,-4.66,314.4
"2010-01-29 00:25:30",1633290,3.434,356,7.363,1.125,-1.292,98.15846,-5.391,-4.062,92.8,0,109.3,13.74,-4.66,318.0
"2010-01-29 00:26:00",1633291,3.029,358.4,5.647,1.371,-2.07,98.15791,-5.392,-4.059,92.9,0,109.3,13.74,-4.66,320.4
"2010-01-29 00:26:30",1633292,3.632,4.516,6.01,0.942,-1.065,98.1593,-5.389,-4.037,92.9,0,109.2,13.74,-4.66,326.5
"2010-01-29 00:27:00",1633293,3.217,0.547,6.553,1.249,-1.873,98.16041,-5.386,-4.104,92.9,0,109.3,13.74,-4.65,322.5
"2010-01-29 00:27:30",1633294,3.402,2.721,5.685,1.096,-0.585,98.16125,-5.384,-4.044,93,0,109.3,13.74,-4.65,324.7
"2010-01-29 00:28:00",1633295,2.843,3.896,7.864,1.115,-1.301,98.1618,-5.382,-4.065,93,0,109.3,13.74,-4.65,325.9
"2010-01-29 00:28:30",1633296,2.946,3.927,6.156,1.139,-1.19,98.16209,-5.382,-4.131,92.9,0,109.3,13.74,-4.65,325.9
"2010-01-29 00:29:00",1633297,2.089,0.482,7.925,1.048,-2.695,98.16264,-5.38,-4.115,93,0,109.3,13.74,-4.65,322.5
"2010-01-29 00:29:30",1633298,2.355,2.9,7.245,1.195,-1.805,98.16264,-5.38,-4.024,93.1,0,109.3,13.75,-4.65,324.9
"2010-01-29 00:30:00",1633299,2.937,4.644,6.375,0.991,-1.446,98.16264,-5.38,-4.149,92.9,0,109.3,13.75,-4.65,326.6
"2010-01-29 00:30:30",1633300,2.974,5.196,7.35,1.055,-0.819,98.16264,-5.38,-4.057,93,0,109.3,13.75,-4.65,327.2
"2010-01-29 00:31:00",1633301,2.509,4.351,7.882,1.142,-1.515,98.16264,-5.38,-4.095,93.1,0,109.3,13.75,-4.65,326.4
"2010-01-29 00:31:30",1633302,1.992,0.159,6.522,1.14,-2.729,98.16264,-5.38,-4.221,93,0,109.3,13.75,-4.65,322.2
"2010-01-29 00:32:00",1633303,1.984,359.4,8.61,1.074,-2.817,98.16264,-5.38,-4.147,93,0,109.3,13.75,-4.65,321.4
"2010-01-29 00:32:30",1633304,2.11,357.1,5.771,1.041,-3.778,98.16264,-5.38,-4.29,92.9,0,109.3,13.75,-4.65,319.1
"2010-01-29 00:33:00",1633305,2.772,1.177,7.674,1.173,-1.941,98.16264,-5.38,-4.094,93.1,0,109.3,13.75,-4.65,323.2
"2010-01-29 00:33:30",1633306,3.076,3.794,6.538,1.153,-0.768,98.16235,-5.381,-4.022,93.2,0,109.3,13.75,-4.65,325.8
"2010-01-29 00:34:00",1633307,3.06,5.295,6.889,0.99,-0.67,98.16264,-5.38,-4.047,93.2,0,109.3,13.75,-4.65,327.3
"2010-01-29 00:34:30",1633308,2.256,2.992,6.994,1.259,-1.944,98.16122,-5.384,-4.11,93.2,0,109.3,13.75,-4.65,325.0
"2010-01-29 00:35:00",1633309,1.968,5.556,8.38,1.182,-2.551,98.15895,-5.39,-4.227,93.1,0,109.3,13.75,-4.66,327.6
"2010-01-29 00:35:30",1633310,1.122,4.059,5.854,0.74,-3.739,98.15782,-5.393,-4.225,93.1,0,109.3,13.76,-4.66,326.1
"2010-01-29 00:36:00",1633311,1.771,10.85,11.07,1.268,-2.342,98.15299,-5.405,-4.158,93.2,0,109.3,13.76,-4.67,332.9
"2010-01-29 00:36:30",1633312,2.308,8.07,9.1,1.113,-1.694,98.14988,-5.413,-4.135,93.3,0,109.3,13.76,-4.68,330.1
"2010-01-29 00:37:00",1633313,2.355,5.623,9.79,1.106,-1.844,98.14931,-5.414,-4.159,93.2,0,109.3,13.76,-4.68,327.6
"2010-01-29 00:37:30",1633314,2.001,1.545,8.41,1.177,-2.543,98.14392,-5.428,-4.163,93.2,0,109.3,13.76,-4.70,323.5
"2010-01-29 00:38:00",1633315,2.208,359.3,7.063,1.22,-2.588,98.14222,-5.432,-4.221,93.2,0,109.3,13.76,-4.70,321.3
"2010-01-29 00:38:30",1633316,1.915,358.6,6.391,1.181,-2.85,98.13768,-5.444,-4.167,93.3,0,109.3,13.76,-4.71,320.6
"2010-01-29 00:39:00",1633317,2.368,359.8,6.929,1.24,-2.738,98.13741,-5.445,-4.221,93.3,0,109.3,13.76,-4.71,321.8
"2010-01-29 00:39:30",1633318,2.821,3.439,7.262,1.06,-1.613,98.13485,-5.451,-4.089,93.4,0,109.3,13.76,-4.72,325.4
"2010-01-29 00:40:00",1633319,3.026,3.331,6.615,1.137,-1.009,98.13343,-5.455,-4.04,93.5,0,109.3,13.76,-4.72,325.3
"2010-01-29 00:40:30",1633320,3.043,4.574,5.157,1.184,-0.764,98.13032,-5.463,-4.089,93.4,0,109.3,13.76,-4.73,326.6
"2010-01-29 00:41:00",1633321,2.217,359.6,6.691,1.156,-2.409,98.12917,-5.466,-4.118,93.4,0,109.3,13.75,-4.73,321.6
"2010-01-29 00:41:30",1633322,2.67,3.172,6.313,1.183,-1.624,98.12889,-5.466,-4.232,93.3,0,109.3,13.75,-4.73,325.2
"2010-01-29 00:42:00",1633323,1.513,359.9,5.849,0.968,-3.187,98.12889,-5.466,-4.177,93.4,0,109.3,13.76,-4.73,321.9
"2010-01-29 00:42:30",1633324,2.636,5.165,7.635,1.106,-1.47,98.12973,-5.464,-4.097,93.5,0,109.2,13.76,-4.73,327.2
"2010-01-29 00:43:00",1633325,2.129,1.763,6.439,1.227,-2.501,98.13,-5.463,-4.194,93.4,0,109.3,13.76,-4.73,323.8
"2010-01-29 00:43:30",1633326,2.518,0.902,6.91,1.207,-1.988,98.13,-5.463,-4.175,93.5,0,109.2,13.76,-4.73,322.9
"2010-01-29 00:44:00",1633327,2.86,359.7,6.156,1.227,-1.393,98.12917,-5.466,-4.109,93.6,0,109.3,13.76,-4.73,321.7
"2010-01-29 00:44:30",1633328,3.34,0.498,6.473,1.024,-1.55,98.12944,-5.465,-4.227,93.4,0,109.3,13.76,-4.73,322.5
"2010-01-29 00:45:00",1633329,2.345,356.2,5.973,1.04,-3.157,98.12973,-5.464,-4.18,93.5,0,109.3,13.76,-4.73,318.2
"2010-01-29 00:45:30",1633330,3.427,0.943,6.152,1.068,-1.551,98.13,-5.463,-4.087,93.6,0,109.3,13.76,-4.73,322.9
"2010-01-29 00:46:00",1633331,4.127,2.379,3.313,0.652,-0.398,98.13,-5.463,-4.111,93.6,0,109.3,13.76,-4.73,324.4
"2010-01-29 00:46:30",1633332,3.554,358.5,6.957,1.069,-0.821,98.13,-5.463,-4.111,93.6,0,109.2,13.76,-4.73,320.5
"2010-01-29 00:47:00",1633333,3.409,356.3,6.72,1.112,-1.508,98.13028,-5.463,-4.12,93.7,0,109.2,13.76,-4.73,318.3
"2010-01-29 00:47:30",1633334,2.586,341.5,4.749,0.9,-3.38,98.13028,-5.463,-4.164,93.6,0,109.3,13.76,-4.73,303.5
"2010-01-29 00:48:00",1633335,3.531,342.1,6.307,1.132,-2.462,98.13,-5.463,-4.255,93.5,0,109.3,13.77,-4.73,304.1
"2010-01-29 00:48:30",1633336,3.431,346.1,5.971,1.179,-2.121,98.13028,-5.463,-4.178,93.6,0,109.3,13.77,-4.73,308.1
"2010-01-29 00:49:00",1633337,3.584,344.4,5.79,1.193,-1.689,98.12973,-5.464,-4.098,93.7,0,109.3,13.77,-4.73,306.4
"2010-01-29 00:49:30",1633338,3.959,342.5,5.469,1.125,-0.65,98.12973,-5.464,-4.113,93.7,0,109.2,13.77,-4.73,304.5
"2010-01-29 00:50:00",1633339,4.106,340.7,7.016,0.964,-0.993,98.12973,-5.464,-4.144,93.7,0,109.2,13.77,-4.73,302.7
"2010-01-29 00:50:30",1633340,3.903,335.5,6.661,1.14,-1.99,98.13139,-5.46,-4.225,93.7,0,109.2,13.77,-4.73,297.5
"2010-01-29 00:51:00",1633341,3.579,335.9,6.466,1.183,-2.239,98.13279,-5.456,-4.182,93.7,0,109.2,13.77,-4.72,297.9
"2010-01-29 00:51:30",1633342,3.986,342.3,5.458,1.027,-0.923,98.13139,-5.46,-4.16,93.7,0,109.2,13.77,-4.73,304.3
"2010-01-29 00:52:00",1633343,4.22,347.6,4.709,0.92,-0.734,98.13528,-5.45,-4.12,93.8,0,109.2,13.77,-4.72,309.6
"2010-01-29 00:52:30",1633344,3.637,346.3,6.27,1.162,-1.199,98.13779,-5.444,-4.124,93.8,0,109.3,13.77,-4.71,308.3
"2010-01-29 00:53:00",1633345,4.387,345.9,4.533,0.724,-0.057,98.14058,-5.436,-4.138,93.8,0,109.2,13.77,-4.70,307.9
"2010-01-29 00:53:30",1633346,2.811,337.2,5.751,0.978,-2.667,98.14113,-5.435,-4.154,93.8,0,109.2,13.77,-4.70,299.2
"2010-01-29 00:54:00",1633347,3.541,344.1,5.662,1.121,-1.653,98.14002,-5.438,-4.147,93.8,0,109.2,13.77,-4.71,306.1
"2010-01-29 00:54:30",1633348,3.016,343.6,6.008,1.164,-3.04,98.14085,-5.436,-4.265,93.7,0,109.2,13.77,-4.70,305.6
"2010-01-29 00:55:00",1633349,4.074,351.1,4.468,0.961,-0.421,98.1442,-5.427,-4.108,93.9,0,109.2,13.77,-4.69,313.1
"2010-01-29 00:55:30",1633350,3.539,348.3,6.056,1.192,-1.416,98.14391,-5.428,-4.153,93.8,0,109.2,13.77,-4.70,310.3
"2010-01-29 00:56:00",1633351,3.921,347.3,5.753,1.061,-0.768,98.14364,-5.429,-4.13,93.9,0,109.2,13.77,-4.70,309.3
"2010-01-29 00:56:30",1633352,3.404,347,6.022,1.111,-1.943,98.14698,-5.42,-4.178,93.8,0,109.2,13.77,-4.69,309.0
"2010-01-29 00:57:00",1633353,3.529,348.7,5.631,1.133,-1.875,98.14754,-5.419,-4.108,93.9,0,109.2,13.76,-4.69,310.7
"2010-01-29 00:57:30",1633354,4.077,349.3,5.15,0.987,-1.544,98.15004,-5.412,-4.218,93.8,0,109.2,13.76,-4.68,311.3
"2010-01-29 00:58:00",1633355,3.987,346.6,5.761,1.074,-1.388,98.15088,-5.41,-4.13,93.9,0,109.3,13.76,-4.68,308.6
"2010-01-29 00:58:30",1633356,4.065,345.2,6.054,1.062,-0.832,98.1506,-5.411,-4.104,93.9,0,109.2,13.76,-4.68,307.2
"2010-01-29 00:59:00",1633357,3.722,345.1,5.567,1.102,-1.597,98.15171,-5.408,-4.148,93.9,0,109.2,13.76,-4.68,307.1
"2010-01-29 00:59:30",1633358,3.733,345,5.99,1.17,-2.018,98.15144,-5.409,-4.179,93.9,0,109.2,13.76,-4.68,307.0
"2010-01-29 01:00:00",1633359,4.15,351.8,5.449,1.121,-1.428,98.15337,-5.404,-4.117,94,0,109.2,13.76,-4.67,313.8
"2010-01-29 01:00:30",1633360,4.295,351.9,5.439,1.014,-1.357,98.15031,-5.412,-4.168,93.9,0,109.2,13.76,-4.68,313.9
"2010-01-29 01:01:00",1633361,4.15,353.4,5.316,1.122,-1.061,98.15115,-5.41,-4.108,94,0,109.2,13.76,-4.68,315.4
"2010-01-29 01:01:30",1633362,4.482,352.8,4.888,0.991,-0.302,98.15337,-5.404,-4.066,94,0,109.2,13.76,-4.67,314.8
"2010-01-29 01:02:00",1633363,4.312,350.6,6.314,1.154,-0.993,98.15254,-5.406,-4.17,93.9,0,109.2,13.76,-4.67,312.6
"2010-01-29 01:02:30",1633364,4.106,350.8,6.146,1.152,-1.45,98.15337,-5.404,-4.15,94,0,109.2,13.77,-4.67,312.8
"2010-01-29 01:03:00",1633365,4.942,355.1,4.007,0.843,-0.152,98.15254,-5.406,-4.103,94,0,109.2,13.77,-4.67,317.1
"2010-01-29 01:03:30",1633366,4.142,349.4,5.48,1.047,-1.676,98.15421,-5.402,-4.114,94,0,109.2,13.77,-4.67,311.4
"2010-01-29 01:04:00",1633367,4.258,348.8,5.91,1.042,-1.382,98.15227,-5.407,-4.084,94,0,109.2,13.77,-4.67,310.8
"2010-01-29 01:04:30",1633368,4.619,351,5.18,1.003,-0.938,98.15394,-5.402,-4.151,94,0,109.2,13.77,-4.67,313.0
"2010-01-29 01:05:00",1633369,4.49,348.6,5.555,1.149,-0.978,98.15533,-5.399,-4.108,94,0,109.2,13.77,-4.67,310.6
"2010-01-29 01:05:30",1633370,4.765,346.3,5.365,1.067,-0.839,98.15478,-5.4,-4.078,94.1,0,109.2,13.77,-4.67,308.3
"2010-01-29 01:06:00",1633371,4.755,343.9,5.417,1.101,-0.742,98.15588,-5.397,-4.116,94.1,0,109.2,13.77,-4.66,305.9
"2010-01-29 01:06:30",1633372,4.634,343,5.096,1.052,-0.585,98.15505,-5.4,-4.098,94.1,0,109.2,13.77,-4.67,305.0
"2010-01-29 01:07:00",1633373,3.979,340.7,6.084,1.173,-1.385,98.15505,-5.4,-4.119,94.1,0,109.2,13.77,-4.67,302.7
"2010-01-29 01:07:30",1633374,4.644,343.7,5.593,1.048,-0.21,98.15478,-5.4,-4.118,94.1,0,109.2,13.77,-4.67,305.7
"2010-01-29 01:08:00",1633375,4.326,343.2,6.129,1.158,-1.064,98.15505,-5.4,-4.122,94.1,0,109.2,13.77,-4.67,305.2
"2010-01-29 01:08:30",1633376,4.995,349.4,4.618,0.904,0.098,98.15533,-5.399,-4.085,94.1,0,109.2,13.77,-4.67,311.4
"2010-01-29 01:09:00",1633377,4.684,347.8,5.743,1.085,-1.109,98.15478,-5.4,-4.153,94.1,0,109.2,13.77,-4.67,309.8
"2010-01-29 01:09:30",1633378,4.607,347.8,5.67,1.104,-0.679,98.15645,-5.396,-4.1,94.2,0,109.2,13.77,-4.66,309.8
"2010-01-29 01:10:00",1633379,4.498,348,5.568,1.106,-0.307,98.15561,-5.398,-4.07,94.1,0,109.2,13.77,-4.67,310.0
"2010-01-29 01:10:30",1633380,4.56,346.4,5.263,1.008,-0.186,98.15478,-5.4,-4.12,94.1,0,109.2,13.77,-4.67,308.4
"2010-01-29 01:11:00",1633381,4.267,345,5.754,1.136,-1.001,98.1545,-5.401,-4.098,94.2,0,109.2,13.77,-4.67,307.0
"2010-01-29 01:11:30",1633382,4.514,345.8,5.686,1.027,-0.81,98.15394,-5.402,-4.075,94.2,0,109.2,13.77,-4.67,307.8
"2010-01-29 01:12:00",1633383,4.741,343.8,4.94,1.122,-0.62,98.1545,-5.401,-4.118,94.2,0,109.2,13.77,-4.67,305.8
"2010-01-29 01:12:30",1633384,4.66,339.3,4.785,1.097,-0.691,98.15421,-5.402,-4.039,94.2,0,109.2,13.77,-4.67,301.3
"2010-01-29 01:13:00",1633385,4.541,344.5,6.062,1.083,-0.431,98.15505,-5.4,-4.114,94.2,0,109.2,13.77,-4.67,306.5
"2010-01-29 01:13:30",1633386,3.949,344.8,5.813,1.138,-0.951,98.15562,-5.398,-4.071,94.2,0,109.2,13.76,-4.67,306.8
"2010-01-29 01:14:00",1633387,3.985,342.4,5.784,1.155,-1.241,98.15479,-5.4,-4.17,94.1,0,109.2,13.76,-4.67,304.4
"2010-01-29 01:14:30",1633388,3.642,343.7,6.285,1.168,-1.294,98.15846,-5.391,-4.045,94.2,0,109.2,13.76,-4.66,305.7
"2010-01-29 01:15:00",1633389,4.203,348.1,4.993,1.016,-0.442,98.16074,-5.385,-4.063,94.2,0,109.2,13.76,-4.65,310.1
"2010-01-29 01:15:30",1633390,3.718,345.3,5.612,1.144,-0.965,98.16328,-5.379,-4.068,94.2,0,109.2,13.76,-4.65,307.3
"2010-01-29 01:16:00",1633391,3.859,347.7,5.579,1.126,-0.742,98.16554,-5.373,-4.059,94.2,0,109.2,13.76,-4.64,309.7
"2010-01-29 01:16:30",1633392,4.005,348.9,5.552,0.958,-0.49,98.16612,-5.371,-4.113,94.2,0,109.2,13.76,-4.64,310.9
"2010-01-29 01:17:00",1633393,3.421,346.2,6.094,1.195,-1.481,98.16839,-5.366,-4.047,94.2,0,109.3,13.76,-4.63,308.2
"2010-01-29 01:17:30",1633394,3.717,346.5,5.937,1.082,-1.449,98.17234,-5.356,-4.034,94.3,0,109.2,13.76,-4.62,308.5
"2010-01-29 01:18:00",1633395,3.335,349.6,5.876,1.19,-1.8,98.17545,-5.348,-4.028,94.3,0,109.2,13.76,-4.61,311.6
"2010-01-29 01:18:30",1633396,3.594,357.8,5.685,1.119,-0.964,98.18311,-5.328,-4.094,94.2,0,109.2,13.77,-4.59,319.8
"2010-01-29 01:19:00",1633397,3.069,357.2,6.251,1.129,-0.824,98.18142,-5.333,-4.012,94.3,0,109.2,13.77,-4.60,319.2
"2010-01-29 01:19:30",1633398,2.752,355.9,6.416,1.155,-1.336,98.18456,-5.325,-4.063,94.2,0,109.2,13.77,-4.59,317.9
"2010-01-29 01:20:00",1633399,2.39,355.6,6.6,1.209,-2.246,98.18907,-5.313,-4.144,94.2,0,109.2,13.77,-4.58,317.6
"2010-01-29 01:20:30",1633400,2.757,355.9,5.998,1.215,-2.004,98.18936,-5.312,-4.101,94.2,0,109.3,13.77,-4.58,317.9
"2010-01-29 01:21:00",1633401,1.657,348.8,3.216,0.483,-4.29,98.18993,-5.311,-4.13,94.2,0,109.2,13.77,-4.58,310.8
"2010-01-29 01:21:30",1633402,3.229,357.1,5.555,1.052,-1.183,98.18852,-5.314,-4.011,94.3,0,109.2,13.77,-4.58,319.1
"2010-01-29 01:22:00",1633403,3.193,355.4,5.927,1.143,-1.359,98.18682,-5.319,-4.096,94.2,0,109.2,13.77,-4.59,317.4
"2010-01-29 01:22:30",1633404,3.407,356.1,5.514,1.065,-0.647,98.18824,-5.315,-3.992,94.3,0,109.2,13.77,-4.58,318.1
"2010-01-29 01:23:00",1633405,2.093,349.4,4.739,0.828,-3.464,98.18964,-5.312,-4.105,94.2,0,109.2,13.77,-4.58,311.4
"2010-01-29 01:23:30",1633406,3.191,354.2,5.999,1.2,-2.529,98.18825,-5.315,-4.11,94.2,0,109.2,13.77,-4.58,316.2
"2010-01-29 01:24:00",1633407,2.659,352.5,7.21,1.142,-2.823,98.18852,-5.314,-4.081,94.2,0,109.2,13.77,-4.58,314.5
"2010-01-29 01:24:30",1633408,4.041,357,5.186,0.898,-0.687,98.18908,-5.313,-4.02,94.3,0,109.2,13.77,-4.58,319.0
"2010-01-29 01:25:00",1633409,3.523,356.6,6.366,1.109,-1.231,98.18768,-5.317,-4.075,94.2,0,109.2,13.77,-4.58,318.6
"2010-01-29 01:25:30",1633410,3.764,357.6,5.955,1.073,-0.575,98.18851,-5.314,-3.986,94.3,0,109.2,13.77,-4.58,319.6
"2010-01-29 01:26:00",1633411,2.679,355.9,7.769,1.052,-2.114,98.18541,-5.322,-4.092,94.2,0,109.2,13.77,-4.59,317.9
"2010-01-29 01:26:30",1633412,3.148,358.5,6.403,1.191,-2.05,98.1837,-5.327,-4.135,94.2,0,109.2,13.77,-4.59,320.5
"2010-01-29 01:27:00",1633413,3.412,358.5,5.692,1.06,-1.626,98.17972,-5.337,-4.054,94.3,0,109.2,13.77,-4.60,320.5
"2010-01-29 01:27:30",1633414,3.595,359.7,5.872,0.961,-0.765,98.17859,-5.34,-4.011,94.3,0,109.2,13.77,-4.61,321.7
"2010-01-29 01:28:00",1633415,3.489,359.4,5.329,1.17,-0.811,98.17236,-5.356,-4.012,94.3,0,109.2,13.77,-4.62,321.4
"2010-01-29 01:28:30",1633416,3.727,357.4,5.505,1.052,-0.903,98.17236,-5.356,-4.009,94.3,0,109.2,13.77,-4.62,319.4
"2010-01-29 01:29:00",1633417,2.418,350.7,5.028,0.945,-3.493,98.17319,-5.353,-4.179,94.2,0,109.2,13.77,-4.62,312.7
"2010-01-29 01:29:30",1633418,3.46,356.5,6.217,1.143,-1.013,98.1695,-5.363,-4.025,94.3,0,109.2,13.77,-4.63,318.5
"2010-01-29 01:30:00",1633419,3.319,356.1,5.925,1.19,-1.861,98.17093,-5.359,-4.058,94.3,0,109.2,13.77,-4.63,318.1
"2010-01-29 01:30:30",1633420,3.759,359.9,4.714,0.926,-0.341,98.16724,-5.369,-3.95,94.4,0,109.2,13.77,-4.64,321.9
"2010-01-29 01:31:00",1633421,3.327,359.4,6.059,1.18,-1.04,98.16724,-5.369,-4.024,94.4,0,109.2,13.77,-4.64,321.4
"2010-01-29 01:31:30",1633422,3.59,358.9,5.919,1.156,-0.701,98.16557,-5.373,-4.066,94.3,0,109.2,13.77,-4.64,320.9
"2010-01-29 01:32:00",1633423,2.283,350.8,4.085,0.761,-3.622,98.16497,-5.374,-4.137,94.3,0,109.2,13.77,-4.64,312.8
"2010-01-29 01:32:30",1633424,3.317,353.4,5.654,1.203,-2.526,98.16525,-5.374,-4.145,94.3,0,109.2,13.77,-4.64,315.4
"2010-01-29 01:33:00",1633425,3.663,354.1,6.187,1.132,-1.476,98.16553,-5.373,-4.022,94.4,0,109.2,13.77,-4.64,316.1
"2010-01-29 01:33:30",1633426,4.03,355.8,4.343,1.009,-0.542,98.16499,-5.374,-3.951,94.5,0,109.2,13.77,-4.64,317.8
"2010-01-29 01:34:00",1633427,4.214,354.6,5.321,0.969,-0.73,98.16414,-5.377,-4.033,94.4,0,109.2,13.77,-4.64,316.6
"2010-01-29 01:34:30",1633428,3.834,354.3,5.741,1.083,-0.831,98.16638,-5.371,-4.035,94.4,0,109.2,13.77,-4.64,316.3
"2010-01-29 01:35:00",1633429,3.423,350.7,5.788,1.142,-2.441,98.16555,-5.373,-4.21,94.2,0,109.2,13.77,-4.64,312.7
"2010-01-29 01:35:30",1633430,3.614,351.9,6.324,1.11,-2.481,98.16413,-5.377,-4.127,94.3,0,109.2,13.77,-4.64,313.9
"2010-01-29 01:36:00",1633431,4.217,356.1,5.204,1.045,-0.846,98.16413,-5.377,-4.064,94.4,0,109.2,13.77,-4.64,318.1
"2010-01-29 01:36:30",1633432,4.413,357,4.265,0.975,-0.584,98.16499,-5.374,-3.982,94.5,0,109.2,13.77,-4.64,319.0
"2010-01-29 01:37:00",1633433,4.355,356.9,5.819,1,-0.299,98.16273,-5.38,-4.046,94.4,0,109.2,13.77,-4.65,318.9
"2010-01-29 01:37:30",1633434,4.091,353.5,5.895,1.183,-1.627,98.16497,-5.374,-4.074,94.4,0,109.2,13.77,-4.64,315.5
"2010-01-29 01:38:00",1633435,3.693,352.4,6.015,1.163,-1.922,98.16216,-5.382,-4.002,94.5,0,109.2,13.77,-4.65,314.4
"2010-01-29 01:38:30",1633436,4.628,354.3,5.176,0.969,-1.303,98.16187,-5.382,-4.062,94.4,0,109.2,13.77,-4.65,316.3
"2010-01-29 01:39:00",1633437,4.477,354.5,5.389,1.117,-1.386,98.16213,-5.382,-4.044,94.4,0,109.2,13.77,-4.65,316.5
"2010-01-29 01:39:30",1633438,4.669,356.7,5.204,1.052,-1.063,98.16188,-5.382,-3.993,94.5,0,109.3,13.77,-4.65,318.7
"2010-01-29 01:40:00",1633439,4.499,357.7,5.139,0.959,-0.802,98.16073,-5.385,-4.034,94.5,0,109.2,13.77,-4.65,319.7
"2010-01-29 01:40:30",1633440,4.176,356.6,6.297,1.038,-1.26,98.16129,-5.384,-4.087,94.4,0,109.2,13.77,-4.65,318.6
"2010-01-29 01:41:00",1633441,3.349,354.9,6.295,1.132,-2.276,98.16129,-5.384,-4.13,94.4,0,109.2,13.77,-4.65,316.9
"2010-01-29 01:41:30",1633442,3.813,0.072,6.002,1.061,-1.215,98.16044,-5.386,-4.096,94.4,0,109.3,13.77,-4.65,322.1
"2010-01-29 01:42:00",1633443,3.868,359.2,6.235,1.116,-1.209,98.16211,-5.382,-4.025,94.5,0,109.2,13.77,-4.65,321.2
"2010-01-29 01:42:30",1633444,3.346,3.048,6.838,1.145,-1.032,98.16155,-5.383,-4.032,94.5,0,109.2,13.77,-4.65,325.0
"2010-01-29 01:43:00",1633445,3.257,5.791,6.813,0.978,-0.853,98.15929,-5.389,-4.033,94.5,0,109.2,13.77,-4.66,327.8
"2010-01-29 01:43:30",1633446,2.67,1.932,6.712,1.218,-1.739,98.15927,-5.389,-4.118,94.4,0,109.2,13.77,-4.66,323.9
"2010-01-29 01:44:00",1633447,2.516,352.7,5.306,1.346,-3.073,98.15986,-5.387,-4.128,94.4,0,109.2,13.78,-4.65,314.7
"2010-01-29 01:44:30",1633448,3.866,355,5.942,1.192,-1.562,98.15984,-5.387,-4.068,94.5,0,109.2,13.78,-4.65,317.0
"2010-01-29 01:45:00",1633449,3.782,359.9,6.367,1.013,-0.78,98.15845,-5.391,-4.047,94.5,0,109.2,13.78,-4.66,321.9